This demonstration page uses our WeatherBlox Daily Observations layout. Learn more.

Left ArrowRight Arrow

40.92501, -98.34201

Hourly Observations for February 3, 2022

Temp ( °F °C ) Dew Point ( °F °C ) Humidity (%) Winds ( mph kmh ) Pressure ( in mb ) Visibility ( mi km ) Precip ( " mm )
12:53 am 00:53 Cloudy 8 -13.3 -9 -22.8 45 45 NNE 13 20 30.66 1038 10 16 0.00 0.00
1:53 am 01:53 Mostly Clear 7 -13.9 -9 -22.8 47 47 NNE 14 22 30.66 1038 10 16 0.00 0.00
2:53 am 02:53 Clear 6 -14.4 -9 -22.8 49 49 NE 12 19 30.66 1038 10 16 0.00 0.00
3:53 am 03:53 Clear 4 -15.6 -13 -25 45 45 NE 12 19 30.65 1038 10 16 0.00 0.00
4:53 am 04:53 Clear 2 -16.7 -11 -23.9 54 54 NNE 8 13 30.65 1038 10 16 0.00 0.00
5:53 am 05:53 Clear 0 -17.8 -11 -23.9 59 59 NNE 7 11 30.65 1038 10 16 0.00 0.00
6:53 am 06:53 Clear -1 -18.3 -10 -23.3 65 65 NNE 9 15 30.66 1038 10 16 0.00 0.00
7:53 am 07:53 Sunny -1 -18.3 -10 -23.3 65 65 NNE 7 11 30.66 1038 10 16 0.00 0.00
8:53 am 08:53 Sunny 1 -17.2 -11 -23.9 56 56 NE 10 17 30.68 1039 10 16 0.00 0.00
9:53 am 09:53 Sunny 4 -15.6 -13 -25 45 45 NE 10 17 30.68 1039 10 16 0.00 0.00
10:53 am 10:53 Sunny 7 -13.9 -13 -25 39 39 NE 5 7 30.68 1039 10 16 0.00 0.00
11:53 am 11:53 Sunny 11 -11.7 -14 -25.6 31 31 NE 7 11 30.66 1038 10 16 0.00 0.00
12:53 pm 12:53 Sunny 14 -10 -14 -25.6 27 27 Calm 30.62 1037 10 16 0.00 0.00
1:53 pm 13:53 Sunny 15 -9.4 -13 -25 27 27 ESE 3 6 30.58 1036 10 16 0.00 0.00
2:53 pm 14:53 Sunny 18 -7.8 -12 -24.4 25 25 Calm 30.55 1035 10 16 0.00 0.00
3:53 pm 15:53 Sunny 20 -6.7 -10 -23.3 26 26 Calm 30.55 1035 10 16 0.00 0.00
4:53 pm 16:53 Sunny 20 -6.7 -9 -22.8 27 27 S 5 7 30.55 1035 10 16 0.00 0.00
5:53 pm 17:53 Clear 17 -8.3 -9 -22.8 30 30 S 7 11 30.55 1035 10 16 0.00 0.00
6:53 pm 18:53 Clear 15 -9.4 -9 -22.8 33 33 S 6 9 30.55 1035 10 16 0.00 0.00
7:53 pm 19:53 Clear 11 -11.7 -8 -22.2 42 42 S 7 11 30.56 1035 10 16 0.00 0.00
8:53 pm 20:53 Clear 11 -11.7 -7 -21.7 44 44 S 8 13 30.55 1035 10 16 0.00 0.00
9:53 pm 21:53 Clear 11 -11.7 -8 -22.2 42 42 S 8 13 30.55 1035 10 16 0.00 0.00
10:53 pm 22:53 Clear 14 -10 -7 -21.7 38 38 SSW 10 17 30.53 1034 10 16 0.00 0.00
11:53 pm 23:53 Clear 14 -10 -7 -21.7 38 38 SSW 13 20 30.50 1033 10 16 0.00 0.00

Powered by AerisWeather